Overview Statistics Trail Chart Weather Telemetry Raw packets
 

This is the latest recevied weather packets stored in our database for station/object KI5NXU. If no packets are shown the sender has not sent any weather packets the latest 10 day(s).

<< 48 49 50 51 52 53 54 >>
Time Temp. Humidity Pressure Rain* Wind** Luminosity Snow
1788041304 40° C 29% 1013.4 hPa 0 mm - 458 W/m² -
1788041003 39.44° C 30% 1013.5 hPa 0 mm - 467 W/m² -
1788040702 40.56° C 29% 1013.6 hPa 0 mm - 476 W/m² -
1788040397 40° C 29% 1013.6 hPa 0 mm - 468 W/m² -
1788040093 40° C 29% 1013.6 hPa 0 mm - 490 W/m² -
1788039787 40° C 30% 1013.4 hPa 0 mm - 505 W/m² -
1788039482 39.44° C 29% 1013.5 hPa 0 mm - 520 W/m² -
1788039178 38.89° C 31% 1013.8 hPa 0 mm - 266 W/m² -
1788038873 40° C 31% 1013.7 hPa 0 mm - 150 W/m² -
1788038568 40° C 29% 1014.1 hPa 0 mm - 554 W/m² -
1788038261 40° C 31% 1013.8 hPa 0 mm - 563 W/m² -
1788037957 40.56° C 29% 1014 hPa 0 mm - 605 W/m² -
1788037657 40° C 30% 1014.2 hPa 0 mm - 620 W/m² -
1788037352 40.56° C 30% 1014.2 hPa 0 mm - 651 W/m² -
1788037051 40° C 29% 1014.2 hPa 0 mm - 649 W/m² -
1788036741 40° C 30% 1014.3 hPa 0 mm - 620 W/m² -
1788036437 40° C 29% 1014.5 hPa 0 mm - 665 W/m² -
1788036133 39.44° C 30% 1014.5 hPa 0 mm - 630 W/m² -
1788035827 40° C 31% 1014.6 hPa 0 mm - 685 W/m² -
1788035522 39.44° C 31% 1014.8 hPa 0 mm - 691 W/m² -
1788035217 39.44° C 31% 1014.8 hPa 0 mm - 684 W/m² -
1788034913 39.44° C 31% 1014.8 hPa 0 mm - 659 W/m² -
1788034609 38.89° C 31% 1014.8 hPa 0 mm - 637 W/m² -
1788034304 38.89° C 32% 1015.2 hPa 0 mm - 661 W/m² -
1788034004 40° C 31% 1014.9 hPa 0 mm - 647 W/m² -

* Rain latest hour (hover to see other rain measurements)
** Current wind speed in m/s (hover to see current wind gust speed)